www.pogodaiklimat.ru

Погода и климат >> Архив погоды >> Грузия >> Зугдиди


ПОГОДА в Зугдиди

АРХИВ ПОГОДЫ в Зугдиди

Время (UTC), дата Ветер
(напр.,м/с)
 
Видим.   Явления Облачность Т
(С)
Тd
(С)
f
(%)
Тe
(С)
Тes
(С)
Комфортность P
(гПа)
Po
(гПа)
Тmin
(С)
Tmax
(С)
R
(мм)
R24
(мм)
S
(см)
03 13.06 В 1 н/о н/о +20.2 +18.4 89 +25 +25 комфорт 1015.1 996.1
06 13.06 СЗ 2 н/о н/о +26.5 +18.2 60 +31 +31 душно 1014.8 996.2 +18.2 6
09 13.06 З 5 н/о н/о +29.1 +17.6 50 +33 +33 очень
душно
1014.2 995.8
12 13.06 З 5 н/о н/о +30.6 +18.0 47 +35 +35 очень
душно
1013.4 995.0
15 13.06 З 6 н/о н/о +27.1 +19.3 62 +33 +33 очень
душно
1014.5 995.9 +31.4
18 13.06 ЮЗ 1 н/о н/о +23.7 +19.1 75 +28 +28 душно 1016.5 997.6 +31.4
21 13.06 В 1 н/о н/о +20.9 +19.5 92 +27 +27 душно 1017.2 998.2
00 14.06 СВ 1 н/о н/о +19.5 +18.8 96 +23 +23 комфорт 1016.5 997.4
03 14.06 С 16 н/о н/о +21.1 +18.8 87 +25 +25 комфорт 1016.7 997.7
06 14.06 В 2 н/о н/о +26.6 +19.2 64 +32 +32 очень
душно
1016.7 998.1 +19.2
09 14.06 ЮЗ 4 н/о н/о +30.3 +19.4 52 +36 +36 очень
душно
1015.8 997.4
12 14.06 З 7 н/о н/о +30.0 +19.7 54 +36 +36 очень
душно
1014.7 996.3
15 14.06 З 4 н/о н/о +26.1 +19.6 67 +32 +32 очень
душно
1016.9 998.2 +31.6
18 14.06 Ю 4 н/о н/о +23.8 +21.2 85 +30 +30 очень
душно
1017.5 998.7 +31.6
21 14.06 Ю 2 н/о н/о +22.1 +18.9 82 +27 +27 душно 1016.6 997.7
00 15.06 СВ 2 н/о н/о +20.3 +18.9 92 +25 +25 комфорт 1015.6 996.6
03 15.06 СВ 2 н/о н/о +21.6 +19.1 86 +27 +27 душно 1015.9 996.9
06 15.06 С 2 н/о н/о +28.2 +17.6 53 +33 +33 очень
душно
1014.7 996.2 +20.1
09 15.06 З 5 н/о н/о +31.9 +17.7 43 +36 +36 очень
душно
1013.6 995.3
12 15.06 З 7 н/о н/о +31.1 +21.1 55 +39 +39 очень
душно
1012.5 994.2
15 15.06 З 6 н/о н/о +28.2 +20.4 63 +35 +35 очень
душно
1012.9 994.4 +34.7
18 15.06 СВ 1 н/о н/о +24.7 +21.3 81 +31 +31 очень
душно
1014.8 996.1 +34.7
21 15.06 СВ 2 н/о н/о +22.1 +20.8 92 +28 +28 душно 1015.1 996.2
00 16.06 Ю 1 н/о н/о +20.7 +20.8 100 +27 +27 душно 1014.0 995.0
03 16.06 В 1 н/о н/о +20.9 +20.0 95 +27 +27 душно 1014.1 995.1
06 16.06 З 3 н/о н/о +27.1 +21.6 72 +35 +35 очень
душно
1013.8 995.3 +20.3
09 16.06 З 3 н/о н/о +31.4 +18.7 47 +36 +36 очень
душно
1012.3 994.1
12 16.06 З 7 н/о н/о +30.6 +21.2 57 +38 +38 очень
душно
1011.8 993.5
15 16.06 З 4 н/о н/о +29.5 +20.9 60 +37 +37 очень
душно
1012.5 994.1 +34.5
18 16.06 З 1 н/о н/о +24.9 +21.7 82 +32 +32 очень
душно
1014.2 995.5 +34.5
21 16.06 ЮЗ 1 н/о н/о +24.7 +22.3 87 +32 +32 очень
душно
1014.7 996.0
00 17.06 СВ 2 н/о н/о +23.7 +22.2 91 +31 +31 очень
душно
1013.8 995.0
03 17.06 В 2 н/о н/о +23.3 +22.3 94 +32 +32 очень
душно
1013.4 994.6
06 17.06 СЗ 3 н/о н/о +28.5 +20.7 63 +36 +36 очень
душно
1013.5 995.1 +22.2
09 17.06 З 7 н/о н/о +28.2 +22.3 70 +37 +37 очень
душно
1013.3 994.8
12 17.06 З 5 н/о н/о +31.5 +21.3 55 +39 +39 очень
душно
1011.3 993.0
15 17.06 З 6 н/о н/о +28.1 +20.9 65 +35 +35 очень
душно
1012.1 993.6 +31.8
18 17.06 З 2 н/о н/о +25.7 +22.2 81 +33 +33 очень
душно
1014.3 995.7 +31.8
21 17.06 С 3 н/о н/о +18.9 +19.2 100 +21 +21 комфорт 1015.0 995.9 5
00 18.06 Ю 2 н/о н/о +19.8 +19.3 97 +23 +23 комфорт 1013.9 994.9 6
03 18.06 ЮВ 2 н/о н/о +19.6 +19.4 99 +23 +23 комфорт 1014.1 995.1
06 18.06 З 2 н/о н/о +27.2 +19.4 62 +33 +33 очень
душно
1013.9 995.4 +18.7 6
09 18.06 З 3 н/о н/о +31.4 +17.3 43 +35 +35 очень
душно
1013.1 994.8
12 18.06 З 7 н/о н/о +30.9 +18.9 49 +36 +36 очень
душно
1012.3 994.0
15 18.06 З 6 н/о н/о +29.4 +18.3 51 +34 +34 очень
душно
1012.4 994.0 +32.6
18 18.06 Ю 3 н/о н/о +19.9 +20.1 100 +24 +24 комфорт 1016.0 997.0 +32.6 31
21 18.06 ЮЗ 1 н/о н/о +19.7 +19.9 100 +24 +24 комфорт 1015.1 996.1 5
00 19.06 штиль 0 н/о н/о +19.5 +19.4 99 +22 +22 комфорт 1014.4 995.4 5
03 19.06 СВ 2 н/о н/о +19.4 +18.3 93 +22 +22 комфорт 1014.1 995.0
06 19.06 С 2 н/о н/о +25.7 +18.3 64 +30 +30 душно 1014.5 995.8 +19.0 5
09 19.06 З 2 н/о н/о +30.0 +19.0 52 +35 +35 очень
душно
1013.4 995.0
12 19.06 З 6 н/о н/о +30.1 +20.3 56 +37 +37 очень
душно
1013.1 994.7
15 19.06 З 6 н/о н/о +28.1 +20.9 65 +35 +35 очень
душно
1013.0 994.5 +32.0
18 19.06 ЮЗ 1 н/о н/о +23.7 +21.1 85 +30 +30 очень
душно
1014.1 995.4 +32.0
21 19.06 В 2 н/о н/о +21.8 +21.3 97 +28 +28 душно 1013.7 994.8
00 20.06 С 2 н/о н/о +20.3 +18.0 87 +24 +24 комфорт 1013.2 994.2

 

Местоположение метеостанции Зугдиди (Грузия): широта 42.50 долгота 41.88 высота над уровнем моря 117 м.

В архиве по умолчанию представлена погода в Зугдиди за последнюю неделю. Архивные данные за месяц целиком и за предыдущие месяцы, начиная с января 2011 года, Вы можете получить, выбрав интересующий диапазон дат из раскрывающегося списка и нажав кнопку "Ввод!".


*Определитесь, кто Вы:
робот инопланетянин человек

Внимание! Время в таблицах - всемирное. Для получения местного времени необходимо прибавить поправку, которая равна 4 ч.

Смотрите также архив погоды в соседних городах и на ближайших метеорологических станциях:

Погода в Кутаиси (Грузия) (67 км)
Погода на Клухорском Перевале (Карачаево-Черкессия, Россия) (68 км)
Погода в Чегете (Кабардино-Балкария, Россия) (96 км)
Погода в Терсколе (Кабардино-Балкария, Россия) (98 км)
Погода на Леднике Гарабаши (Карачаево-Черкессия, Россия) (99 км)
Погода в Домбае (Карачаево-Черкессия, Россия) (99 км)
Погода в Батуми (Грузия) (101 км)
Погода в Сакаре (Грузия) (103 км)
Погода в Амролаури (Грузия) (104 км)
Погода в Теберде (Карачаево-Черкессия, Россия) (106 км)

Пояснения к столбцам:

Ветер - указаны скорость ветра в м/с - средняя за 10 мин, порывы в срок и между сроками (в фигурных скобках) и направление, откуда дует ветер: С - северный, СВ - северо-восточный, В - восточный, ЮВ - юго-восточный, Ю - южный, ЮЗ - юго-западный, З - западный, СЗ - северо-западный.
Видимость - горизонтальная дальность видимости в метрах или километрах. При видимости от 1 до 10 км при отсутствии осадков обычно наблюдается дымка, при ухудшении видимости до 1 км и менее - туман. В сухую погоду видимость может ухудшаться дымом, пылью или мглою.
Явления - указаны атмосферные явления, наблюдавшиеся в срок или в последний час перед сроком; фигурными скобками обозначены явления, наблюдавшиеся между сроками (за 1-3 часа до срока); квадратными скобками обозначены град или гололедные отложения с указанием их диаметра в мм.
Облачность - указаны через наклонную черту общая и нижняя облачность в баллах и высота нижней границы облаков в метрах; квадратными скобками обозначены формы облаков: Ci - перистые, Cs - перисто-слоистые, Cc - перисто-кучевые, Ac - высококучевые, As - высокослоистые, Sc - слоисто-кучевые, Ns - слоисто-дождевые, Cu - кучевые, Cb - кучево-дождевые. Подробнее классификацию облаков см. в Атласе облаков (PDF).
T - Температура воздуха - температура, измеренная на высоте 2 м над землей.
Td - Температура точки росы - температура, при понижении до которой содержащийся в воздухе водяной пар достигнет насыщения.
f - Относительная влажность воздуха - влажноcть воздуха, измеренная на высоте 2 м над землей.
Te - Эффективная температура - температура, которую ощущает одетый по сезону человек в тени. Характеристика душности погоды. При расчете учитывается влияние влажности воздуха и скорости ветра на теплоощущения человека.
Tes - Эффективная температура на солнце - температура, которую ощущает человек, с поправкой на солнечный нагрев. Характеристика знойности погоды. Зависит от высоты солнца над горизонтом, облачности и скорости ветра. Ночью, в пасмурную погоду, а также при ветре 12 м/с и более поправка равна нулю.
P - Атмосферное давление - приведенное к уровню моря атмосферное давление.
Po - Атмосферное давление - измеренное на уровне метеостанции атмосферное давление.
Tmin - Минимальная температура - минимум температуры воздуха на высоте 2 м над землей.
Tmax - Максимальная температура - максимум температуры воздуха на высоте 2 м над землей.
R - Количество осадков - Количество выпавших осадков за период времени, мм. При наведении курсора мыши на число - период времени, за который выпало указанное количество осадков.
R24 - Количество осадков - Количество выпавших осадков за 24 часа, мм.
S - Снежный покров - Высота снежного покрова, см. При наведении курсора мыши на число - состояние снежного покрова и степень покрытия местности в баллах.